Regional Weather Roundup
Issued by NWS

Home | Current Version | Previous Version | Graphics & Text | Print | Product List | Glossary On
Versions: 1 2 3 4 5 6 7 8 9 10 11 12 13 14 15 16 17 18 19 20 21 22 23 24 25 26 27 28 29 30 31 32 33 34 35 36 37 38 39 40 41 42 43 44 45 46 47 48 49 50
022
ASUS44 KJAN 300210
RWRMS

MISSISSIPPI HOURLY WEATHER ROUNDUP
NATIONAL WEATHER SERVICE JACKSON MS
900 PM CDT FRI AUG 29 2014

NOTE: "FAIR: INDICATES FEW OR NO CLOUDS BELOW 12,000 FEET WITH NO
SIGNIFICANT WEATHER AND/OR OBSTRUCTIONS TO VISIBILITY.

MSZ001>002-007>008-010>013-018>021-025>028-034>036-300300-
NORTHWEST MISSISSIPPI

CITY           SKY/WX    TMP DP  RH WIND       PRES   REMARKS
CLARKSDALE     FAIR      79  75  89 CALM      29.95S
CLEVELAND      FAIR      81  75  83 CALM      29.94R
GREENWOOD      MOCLDY    77  72  84 CALM      29.95R
GREENVILLE     CLOUDY    81  71  71 S5        29.93S
GRENADA        FAIR      75  70  83 CALM      29.96R
OLIVE BRANCH   CLEAR     81  72  74 CALM      29.96R
OXFORD         FAIR      77  70  78 CALM      29.98S
TUNICA         MOCLDY    77  72  83 CALM      29.95S
$$

MSZ003>006-009-014>017-022>024-029>033-037>039-300300-
NORTHEAST MISSISSIPPI

CITY           SKY/WX    TMP DP  RH WIND       PRES   REMARKS
BELMONT        FAIR      73  69  88 CALM      30.00R
COLUMBUS AFB   PTCLDY    78  67  68 S5        29.98R
CORINTH        FAIR      73  68  83 CALM      29.97R
GOLDN TRIANGLE MOCLDY    81  64  57 S6        29.98R
STARKVILLE     FAIR      77  66  69 CALM      29.98R
TUPELO         CLEAR     82  65  56 CALM      29.97R
$$

MSZ040-058-300300-
CENTRAL MISSISSIPPI

CITY           SKY/WX    TMP DP  RH WIND       PRES   REMARKS
JACKSON INTL   MOCLDY    80  71  74 SE9       29.97R
JACKSON HAWKNS MOCLDY    81  70  69 SE9       29.98R
MERIDIAN KEY   CLOUDY    81  71  71 S8        29.99R
MERIDIAN NAS   CLOUDY    82  69  64 CALM      29.99R
RAYMOND        FAIR      81  75  83 MISG      29.97R
VICKSBURG      MOCLDY    80  72  76 S3        29.93S
$$

MSZ059>079-300300-
SOUTH MISSISSIPPI

CITY           SKY/WX    TMP DP  RH WIND       PRES   REMARKS
BROOKHAVEN     FAIR      77  73  88 CALM      29.99S
COLUMBIA       FAIR      75  73  94 SE5       29.97S
HATTIESBURG    CLOUDY    76  73  91 CALM      30.00R
MCCOMB         CLOUDY    76  71  85 SE8       29.97S
NATCHEZ        CLOUDY    79  73  83 S7        29.96R
PINE BELT      CLOUDY    73  70  88 S3        30.01R
$$

MSZ080>082-300300-
COASTAL MISSISSIPPI

CITY           SKY/WX    TMP DP  RH WIND       PRES   REMARKS
BILOXI         MOCLDY    79  75  86 SE6       29.98S
PASCAGOULA     MOCLDY    78  76  93 SE6       30.00R
GULFPORT       CLOUDY    78  75  90 SE7       29.98R
$$



USA.gov is the U.S. government's official web portal to all federal, state and local government web resources and services.